Location: Kernascl�den
(48.0062°N, 3.3198°W)
Time: 17:11:43
(UTC+00:00)

USA 234 - Pass Details

Date: 21 January 2021
Orbit: 1100 x 1107 km, 123.0° (Epoch: 26 February)

Event Time Altitude Azimuth Distance (km) Brightness Sun altitude
Exits shadow 19:43:04 56° 47° (NE) 1,293 3.3 -27.5°
Maximum altitude 19:43:42 59° 23° (NNE) 1,266 3.4 -27.6°
Drops below altitude 10° 19:50:06 10° 306° (NW) 2,968 6.2 -28.7°
Sets 19:52:37 0° 303° (WNW) 3,928 7.0 -29.1°
